Location: Bogis-Bossey
(46.3500°N, 6.1667°E)
Time: 18:15:05
(UTC+00:00)

USA 238 DEB - Pass Details

Date: 29 February 2024
Orbit: 926 x 1285 km, 63.4° (Epoch: 21 April)

Event Time Altitude Azimuth Distance (km) Brightness Sun altitude
Exits shadow 03:33:43 71° 196° (SSW) 1,046 3.4 -28.4°
Maximum altitude 03:34:27 83° 126° (SE) 1,011 3.5 -28.3°
Drops below altitude 10° 03:41:15 10° 40° (NE) 2,898 6.7 -27.2°
Sets 03:44:00 0° 40° (NE) 3,911 7.5 -26.7°
